Simultaneous Nadir Overpasses (SNOs) Predictions

Prediction of SNOs between AQUA and METOP-A Satellite Orbit:

Table of predicted SNOs for the next 14.0 days since TLE Epoch: 3/25/2016
Index Date (AQUA) Time (AQUA) Lat,Lon (AQUA) SZA (AQUA ) Date (METOP-A) Time (METOP-A) Lat,Lon (METOP-A) SZA (METOP-A ) Distance(km) Time Diff (sec)
1 03/27/2016 09:45:31 73.87, 27.84 71.06 03/27/2016 09:44:59 73.89, 27.88 71.10 3.33 32
2 03/27/2016 10:34:58 -73.93,-164.66 108.88 03/27/2016 10:35:40 -73.96,-164.64 108.86 2.93 42
3 03/30/2016 05:19:49 73.88, 94.22 69.98 03/30/2016 05:19:22 73.89, 94.28 69.99 2.13 27
4 03/30/2016 06:09:16 -73.95, -98.27 109.97 03/30/2016 06:10:03 -73.96, -98.23 109.96 2.15 47
5 04/02/2016 00:04:27 -73.20, -5.53 111.83 04/02/2016 00:03:21 -73.18, -8.28 111.73 88.54 66
6 04/02/2016 00:54:07 73.86, 160.70 68.86 04/02/2016 00:53:46 73.89, 160.68 68.90 3.33 21
7 04/02/2016 01:43:35 -73.97, -31.90 111.04 04/02/2016 01:44:27 -73.96, -31.83 111.06 2.57 52
8 04/04/2016 19:38:50 -73.45, 60.38 112.65 04/04/2016 19:37:41 -73.38, 58.56 112.64 58.45 69
9 04/04/2016 20:28:26 73.91,-132.97 67.83 04/04/2016 20:28:10 73.89,-132.93 67.81 2.38 16
10 04/04/2016 21:17:53 -73.96, 34.55 112.13 04/04/2016 21:18:51 -73.96, 34.57 112.14 0.47 58
11 04/07/2016 15:13:11 -73.65, 126.37 113.50 04/07/2016 15:11:59 -73.62, 125.51 113.49 27.03 72
12 04/07/2016 16:02:43 73.91, -66.55 66.76 04/07/2016 16:02:33 73.88, -66.55 66.74 3.15 10
13 04/07/2016 16:52:10 -73.96, 100.98 113.20 04/07/2016 16:53:14 -73.95, 100.95 113.21 0.98 64




NCC Satellite Simultaneous Nadir Overpasses (SNOs) Prediction Service
